TimePST,TemperatureF,Dew PointF,Humidity,Sea Level PressureIn,VisibilityMPH,Wind Direction,Wind SpeedMPH,Gust SpeedMPH,PrecipitationIn,Events,Conditions,WindDirDegrees,DateUTC
12:53 AM,46.0,37.9,73,30.11,10.0,East,3.5,-,N/A,,Clear,100,2013-02-10 08:53:00
1:53 AM,46.0,37.9,73,30.09,10.0,ESE,3.5,-,N/A,,Scattered Clouds,110,2013-02-10 09:53:00
2:53 AM,46.0,37.9,73,30.08,10.0,East,5.8,-,N/A,,Partly Cloudy,90,2013-02-10 10:53:00
3:53 AM,46.9,39.0,74,30.08,10.0,East,4.6,-,N/A,,Overcast,80,2013-02-10 11:53:00
4:53 AM,46.9,39.0,74,30.07,10.0,East,4.6,-,N/A,,Mostly Cloudy,100,2013-02-10 12:53:00
5:53 AM,45.0,37.9,76,30.07,10.0,East,3.5,-,N/A,,Clear,100,2013-02-10 13:53:00
6:53 AM,45.0,37.0,74,30.08,10.0,Calm,Calm,-,N/A,,Clear,0,2013-02-10 14:53:00
7:53 AM,48.0,39.9,74,30.09,10.0,East,3.5,-,N/A,,Clear,100,2013-02-10 15:53:00
8:53 AM,53.1,39.9,61,30.09,10.0,East,5.8,-,N/A,,Mostly Cloudy,100,2013-02-10 16:53:00
9:53 AM,55.0,39.9,57,30.10,10.0,Calm,Calm,-,N/A,,Overcast,0,2013-02-10 17:53:00
10:53 AM,55.0,41.0,59,30.09,10.0,South,4.6,-,N/A,,Overcast,170,2013-02-10 18:53:00
11:53 AM,55.9,42.1,60,30.07,10.0,South,4.6,-,N/A,,Overcast,190,2013-02-10 19:53:00
12:53 PM,59.0,41.0,51,30.04,10.0,Calm,Calm,-,N/A,,Overcast,0,2013-02-10 20:53:00
1:53 PM,57.9,41.0,53,30.02,10.0,SSW,5.8,-,N/A,,Overcast,210,2013-02-10 21:53:00
2:53 PM,57.9,39.0,49,30.02,10.0,SSW,6.9,-,N/A,,Overcast,210,2013-02-10 22:53:00
3:53 PM,57.9,37.9,47,30.02,10.0,Variable,3.5,-,N/A,,Overcast,0,2013-02-10 23:53:00
4:53 PM,55.9,39.0,53,30.01,10.0,SSW,6.9,-,N/A,,Overcast,200,2013-02-11 00:53:00
5:53 PM,55.0,41.0,59,30.03,10.0,WSW,3.5,-,N/A,,Overcast,240,2013-02-11 01:53:00
6:53 PM,54.0,42.1,64,30.03,10.0,SSW,4.6,-,N/A,,Scattered Clouds,200,2013-02-11 02:53:00
7:53 PM,54.0,42.1,64,30.05,10.0,Calm,Calm,-,N/A,,Overcast,0,2013-02-11 03:53:00
8:53 PM,53.1,42.1,66,30.05,10.0,Calm,Calm,-,N/A,,Partly Cloudy,0,2013-02-11 04:53:00
9:53 PM,52.0,42.1,69,30.06,10.0,Calm,Calm,-,N/A,,Mostly Cloudy,0,2013-02-11 05:53:00
10:53 PM,52.0,43.0,71,30.06,10.0,Calm,Calm,-,N/A,,Overcast,0,2013-02-11 06:53:00
11:53 PM,52.0,42.1,69,30.07,10.0,Calm,Calm,-,N/A,,Overcast,0,2013-02-11 07:53:00